Weather observations for the past three days for
De Queen, J Lynn Helms Sevier County Airport
Imperial (Metric)
Date Time (cdt) Wind (mph) Vis. (mi.) Weather Sky Cond. Temperature (ºF) Relative Humidity Wind Chill (°F) Heat Index (°F) Pressure Precipitation (in)
Air Dwpt 6 hour altimeter (in) sea level (mb) 1 hr 3 hr 6 hr
Max. Min.
12 12:53 W 5 10.00 Mostly Cloudy SCT048 BKN055 89.1 72 91 70 57% 96 30.09 1018.4
12 11:53 Vrbl 7 10.00 A Few Clouds FEW038 88 72 59% 95 30.09 1018.3
12 10:53 Calm 10.00 Fair CLR 87.1 73.9 65% 95 30.09 1018.5
12 09:53 NE 3 10.00 Fair CLR 84.9 73.9 70% 92 30.09 1018.4
12 08:53 Calm 10.00 Fair CLR 80.1 73 79% 84 30.09 1018.4
12 07:53 E 3 9.00 A Few Clouds FEW120 73.9 73 97% 30.08 1017.9
12 06:53 Calm 5.00 Fog/Mist FEW120 71.1 70 73 69.1 96% 30.06 1017.3
12 05:53 Calm 4.00 Fog/Mist CLR 69.1 69.1 100% 30.05 1016.9
12 04:53 Calm 6.00 Fog/Mist CLR 70 70 100% 30.03 1016.3
12 03:53 Calm 4.00 Fog/Mist CLR 71.1 71.1 100% 30.01 1015.6
12 02:53 Calm 5.00 Fog/Mist CLR 72 71.1 97% 30 1015.2
12 01:53 Calm 4.00 Fog/Mist FEW002 72 72 100% 30.01 1015.6
12 00:53 Calm 3.00 Fog/Mist CLR 73 72 90 73 96% 30.02 1016.0
11 23:53 Calm 5.00 Fog/Mist CLR 73 73 100% 30.03 1016.3
11 22:53 Calm 8.00 Fair CLR 75 73.9 96% 73 30.02 1016.0
11 21:53 Calm 10.00 Fair CLR 75.9 73.9 94% 75 30.01 1015.5
11 20:53 SE 3 10.00 Fair CLR 82.9 71.1 67% 88 29.99 1014.9
11 19:53 SE 3 10.00 Fair CLR 87.1 71.1 59% 93 29.98 1014.8
11 18:53 S 5 10.00 Fair CLR 89.1 69.1 91.9 89.1 52% 94 29.99 1015.0
11 17:53 S 6 10.00 Fair CLR 91 68 47% 95 29.98 1014.8
11 16:53 S 5 10.00 A Few Clouds FEW055 91 71.1 52% 98 29.99 1015.0
11 15:53 Vrbl 3 10.00 Fair CLR 91 66.9 45% 94 30 1015.4
11 14:53 Calm 10.00 Fair CLR 91.9 66 43% 95 30.01 1015.8
11 13:53 W 5 10.00 Fair CLR 91 70 50% 97 30.03 1016.2
11 12:53 Calm 10.00 Fair CLR 91 71.1 91 70 52% 98 30.04 1016.5
11 11:53 Calm 10.00 Fair CLR 88 72 59% 95 30.04 1016.8
11 10:53 W 5 10.00 Fair CLR 86 72 63% 92 30.05 1016.8
11 09:53 Calm 10.00 Fair CLR 84 73 70% 90 30.05 1017.2
11 08:53 Calm 10.00 Fair CLR 79 73 82% 82 30.06 1017.4
11 07:53 Calm 10.00 Fair CLR 75 72 90% 74 30.05 1017.1
11 06:53 Calm 4.00 Fog/Mist CLR 70 70 73 69.1 100% 30.04 1016.5
11 05:53 Calm 0.75 Fog/Mist VV002 69.1 69.1 100% 30.02 1015.9
11 04:53 Calm 4.00 Fog/Mist CLR 70 70 100% 30.01 1015.5
11 03:53 Calm 6.00 Fog/Mist CLR 71.1 71.1 100% 30 1015.3
11 02:53 E 3 5.00 Fog/Mist CLR 71.1 71.1 100% 30 1015.2
11 01:53 Calm 10.00 A Few Clouds FEW065 73 71.1 94% 30.01 1015.6
11 00:53 Calm 8.00 A Few Clouds FEW070 73 72 90 73 96% 30.01 1015.8
10 23:53 Calm 9.00 A Few Clouds FEW080 73 73 100% 30.01 1015.7
10 22:53 Calm 8.00 Fair CLR 73.9 73.9 100% 30 1015.4
10 21:53 Calm 10.00 Fair CLR 75 73.9 96% 73 29.99 1014.8
10 20:53 Calm 10.00 Fair CLR 78.1 73.9 87% 81 29.97 1014.3
10 19:53 Calm 10.00 Fair CLR 82.9 73.9 74% 89 29.96 1014.0
10 18:53 SE 3 10.00 A Few Clouds FEW075 91 68 93 87.1 47% 95 29.95 1013.8
10 17:53 Calm 10.00 Fair CLR 89.1 68 50% 93 29.95 1013.6
10 16:53 Calm 10.00 Fair CLR 93 66.9 42% 97 29.96 1013.8
10 15:53 Calm 10.00 Fair CLR 91 64.9 42% 93 29.97 1014.3
10 14:53 Vrbl 5 10.00 A Few Clouds FEW095 91 68 47% 95 29.99 1014.9
10 13:53 Calm 10.00 Fair CLR 91 68 47% 95 30 1015.3
10 12:53 Calm 10.00 Fair CLR 90 69.1 90 66.9 50% 95 30.01 1015.8
10 11:53 Calm 10.00 Fair CLR 88 69.1 54% 92 30.03 1016.3
10 10:53 SW 6 10.00 Fair CLR 84.9 71.1 63% 90 30.04 1016.6
10 09:53 SW 3 10.00 Fair CLR 81 72 74% 85 30.03 1016.4
10 08:53 Calm 10.00 Fair CLR 78.1 71.1 79% 80 30.03 1016.4
10 07:53 Calm 10.00 Fair CLR 72 70 94% 30.02 1016.0
10 06:53 Calm 4.00 Fog/Mist CLR 66.9 66.9 69.1 66 100% 30 1015.4
10 05:53 Calm 0.50 Fog VV002 66 66 100% 29.99 1015.1
10 04:53 Calm 1.75 Fog/Mist FEW002 66.9 66.9 100% 29.98 1014.7
10 03:53 Calm 4.00 Fog/Mist CLR 66.9 66.9 100% 29.97 1014.3
10 02:53 Calm 3.00 Fog/Mist CLR 68 68 100% 29.96 1014.1
10 01:53 Calm 1.50 Fog/Mist FEW002 68 68 100% 29.97 1014.2
10 00:53 Calm 0.75 Fog/Mist VV002 69.1 69.1 87.1 69.1 100% 29.97 1014.4
09 23:53 Calm 0.75 Fog/Mist VV002 70 70 100% 29.97 1014.3
09 22:53 Calm 10.00 Fair CLR 71.1 70 96% 29.96 1014.0
09 21:53 Calm 10.00 Fair CLR 73 72 96% 29.94 1013.2
09 20:53 Calm 10.00 Fair CLR 77 72 85% 78 29.92 1012.7
09 19:53 Calm 10.00 Fair CLR 84.9 69.1 59% 89 29.91 1012.2
09 18:53 N 5 10.00 A Few Clouds FEW065 87.1 68 88 82 53% 91 29.89 1011.6
09 17:53 Calm 10.00 A Few Clouds FEW065 FEW080 86 69.1 57% 90 29.88 1011.3
09 16:53 Calm 10.00 Mostly Cloudy BKN060 BKN080 BKN090 84.9 70 61% 89 29.88 1011.3
09 15:53 N 5 10.00 Mostly Cloudy FEW048 SCT065 BKN080 84.9 68 57% 88 29.89 1011.6
09 14:53 W 7 10.00 Fair CLR 86 68 55% 89 29.9 1011.8
09 13:53 Vrbl 7 10.00 Mostly Cloudy FEW043 SCT050 BKN060 84.9 69.1 59% 89 29.91 1012.1
Date Time (cdt) Wind (mph) Vis. (mi.) Weather Sky Cond. Air Dwpt Max. Min. Relative Humidity Wind Chill (°F) Heat Index (°F) altimeter (in) sea level (mb) 1 hr 3 hr 6 hr
6 hour
Temperature (ºF) Pressure Precipitation (in)